QPF
0.00 0.00 0.01 0.05 0.08 0.09 0.08 0.07 0.07 0.07 0.06 0.05 0.06 0.06 0.06 0.07 0.11 0.10 0.08 0.08 0.05 0.04 0.04 0.04 0.06 0.07 0.08 0.09 0.09 0.09 0.08 0.07 0.09 0.10 0.08 0.06 0.03 0.03 0.04 0.03 0.05 0.04 0.05
0.00 0.01 0.02 0.03 0.04 0.06 0.09 0.10 0.13 0.13 0.11 0.08 0.07 0.07 0.08 0.10 0.12 0.11 0.09 0.08 0.06 0.05 0.04 0.05 0.05 0.05 0.08 0.09 0.08 0.08 0.09 0.08 0.08 0.10 0.11 0.08 0.06 0.04 0.02 0.03 0.04 0.04 0.04
0.01 0.01 0.02 0.03 0.03 0.06 0.12 0.09 0.11 0.14 0.14 0.12 0.10 0.08 0.09 0.09 0.09 0.09 0.08 0.08 0.08 0.05 0.04 0.05 0.06 0.06 0.06 0.07 0.09 0.08 0.11 0.11 0.09 0.07 0.09 0.08 0.07 0.07 0.03 0.01 0.03 0.03 0.04
0.01 0.02 0.03 0.03 0.03 0.05 0.10 0.07 0.07 0.08 0.12 0.12 0.08 0.10 0.12 0.10 0.08 0.08 0.08 0.10 0.10 0.07 0.04 0.06 0.06 0.06 0.05 0.08 0.07 0.06 0.08 0.10 0.09 0.06 0.05 0.05 0.05 0.07 0.06 0.03 0.01 0.01 0.03
0.01 0.01 0.01 0.02 0.03 0.03 0.05 0.05 0.05 0.06 0.08 0.07 0.06 0.09 0.09 0.10 0.09 0.08 0.09 0.10 0.10 0.08 0.06 0.05 0.06 0.06 0.05 0.08 0.08 0.07 0.07 0.07 0.08 0.06 0.05 0.05 0.04 0.03 0.05 0.06 0.03 0.02 0.01
0.00 0.01 0.01 0.01 0.02 0.02 0.02 0.03 0.04 0.05 0.05 0.04 0.05 0.07 0.10 0.10 0.10 0.09 0.10 0.11 0.10 0.10 0.09 0.07 0.07 0.05 0.06 0.07 0.08 0.09 0.07 0.07 0.08 0.08 0.06 0.06 0.05 0.04 0.04 0.05 0.04 0.03 0.01
0.00 0.02 0.02 0.01 0.02 0.03 0.03 0.03 0.04 0.05 0.06 0.06 0.06 0.06 0.08 0.10 0.10 0.08 0.09 0.11 0.11 0.11 0.09 0.07 0.07 0.06 0.06 0.07 0.09 0.09 0.07 0.06 0.08 0.09 0.06 0.06 0.04 0.04 0.04 0.05 0.04 0.04 0.02
0.00 0.03 0.04 0.03 0.03 0.04 0.05 0.07 0.07 0.06 0.04 0.03 0.04 0.06 0.07 0.07 0.08 0.08 0.07 0.09 0.09 0.08 0.09 0.09 0.08 0.08 0.08 0.06 0.08 0.08 0.07 0.08 0.08 0.06 0.07 0.07 0.05 0.03 0.05 0.06 0.07 0.06 0.04
0.00 0.02 0.04 0.04 0.04 0.04 0.07 0.08 0.07 0.06 0.05 0.04 0.04 0.05 0.06 0.07 0.08 0.08 0.08 0.08 0.09 0.09 0.09 0.09 0.09 0.09 0.09 0.09 0.10 0.09 0.09 0.09 0.08 0.06 0.08 0.08 0.06 0.05 0.04 0.05 0.06 0.08 0.07
0.00 0.01 0.02 0.03 0.03 0.03 0.04 0.05 0.04 0.04 0.04 0.05 0.05 0.04 0.04 0.06 0.09 0.12 0.10 0.09 0.08 0.07 0.06 0.06 0.09 0.09 0.09 0.09 0.11 0.09 0.09 0.09 0.07 0.06 0.07 0.08 0.07 0.06 0.04 0.05 0.05 0.07 0.08
0.00 0.00 0.01 0.01 0.02 0.02 0.02 0.02 0.03 0.04 0.03 0.04 0.04 0.03 0.03 0.04 0.05 0.07 0.08 0.08 0.07 0.06 0.06 0.06 0.08 0.10 0.11 0.11 0.12 0.12 0.12 0.11 0.10 0.08 0.06 0.07 0.07 0.06 0.05 0.05 0.06 0.07 0.09
0.00 0.00 0.00 0.01 0.01 0.01 0.01 0.01 0.02 0.02 0.02 0.02 0.02 0.02 0.03 0.03 0.03 0.04 0.04 0.04 0.05 0.06 0.06 0.07 0.09 0.09 0.10 0.12 0.12 0.11 0.10 0.10 0.10 0.09 0.08 0.07 0.07 0.07 0.06 0.06 0.05 0.07 0.11
0.00 0.00 0.00 0.00 0.01 0.01 0.01 0.01 0.01 0.01 0.01 0.01 0.01 0.02 0.03 0.02 0.02 0.02 0.03 0.04 0.05 0.07 0.07 0.07 0.08 0.08 0.08 0.09 0.10 0.12 0.11 0.10 0.09 0.09 0.09 0.10 0.12 0.11 0.09 0.08 0.07 0.08 0.10
0.00 0.00 0.00 0.01 0.01 0.01 0.01 0.00 0.00 0.01 0.00 0.00 0.01 0.03 0.04 0.04 0.03 0.02 0.04 0.06 0.07 0.08 0.09 0.09 0.09 0.10 0.10 0.09 0.10 0.11 0.12 0.11 0.11 0.12 0.12 0.13 0.14 0.15 0.15 0.13 0.12 0.11 0.12
0.00 0.00 0.01 0.02 0.02 0.02 0.01 0.00 0.00 0.01 0.00 0.01 0.05 0.08 0.08 0.05 0.03 0.03 0.05 0.06 0.06 0.07 0.09 0.09 0.08 0.09 0.11 0.12 0.12 0.11 0.10 0.11 0.11 0.12 0.12 0.10 0.10 0.12 0.15 0.15 0.14 0.14 0.14
0.00 0.00 0.01 0.04 0.04 0.02 0.01 0.00 0.00 0.00 0.00 0.01 0.02 0.07 0.07 0.05 0.02 0.02 0.02 0.03 0.04 0.05 0.05 0.06 0.06 0.06 0.08 0.12 0.14 0.12 0.13 0.14 0.14 0.14 0.13 0.12 0.12 0.12 0.14 0.15 0.16 0.16 0.16
0.00 0.00 0.00 0.02 0.04 0.03 0.02 0.01 0.00 0.00 0.01 0.01 0.00 0.01 0.03 0.03 0.02 0.01 0.01 0.02 0.03 0.03 0.04 0.05 0.04 0.06 0.08 0.09 0.12 0.15 0.14 0.14 0.13 0.13 0.13 0.11 0.10 0.11 0.10 0.11 0.13 0.13 0.14
0.00 0.00 0.00 0.00 0.02 0.02 0.01 0.01 0.00 0.00 0.00 0.01 0.01 0.00 0.01 0.01 0.01 0.01 0.01 0.02 0.02 0.02 0.03 0.03 0.03 0.03 0.03 0.04 0.05 0.07 0.08 0.08 0.09 0.10 0.11 0.11 0.11 0.11 0.11 0.11 0.11 0.11 0.11
0.00 0.00 0.00 0.00 0.00 0.01 0.01 0.00 0.00 0.00 0.00 0.01 0.01 0.00 0.01 0.01 0.01 0.01 0.01 0.02 0.02 0.02 0.03 0.03 0.03 0.02 0.04 0.04 0.05 0.05 0.07 0.09 0.10 0.11 0.12 0.14 0.15 0.17 0.16 0.13 0.12 0.11 0.09
0.00 0.00 0.01 0.01 0.01 0.01 0.01 0.00 0.00 0.00 0.00 0.01 0.01 0.01 0.01 0.01 0.00 0.00 0.01 0.01 0.01 0.01 0.01 0.02 0.01 0.02 0.04 0.06 0.03 0.03 0.04 0.06 0.07 0.09 0.10 0.12 0.12 0.16 0.17 0.14 0.14 0.13 0.11
0.01 0.01 0.01 0.01 0.00 0.00 0.00 0.01 0.00 0.00 0.00 0.01 0.01 0.01 0.01 0.00 0.00 0.00 0.01 0.01 0.01 0.01 0.01 0.02 0.02 0.03 0.04 0.05 0.04 0.03 0.02 0.03 0.04 0.05 0.06 0.08 0.10 0.10 0.12 0.13 0.13 0.14 0.12
0.01 0.01 0.01 0.01 0.01 0.02 0.01 0.01 0.01 0.01 0.01 0.00 0.01 0.01 0.01 0.00 0.00 0.01 0.01 0.01 0.01 0.02 0.02 0.03 0.03 0.03 0.02 0.03 0.04 0.04 0.03 0.04 0.05 0.06 0.06 0.07 0.09 0.09 0.09 0.10 0.11 0.10 0.09
0.02 0.02 0.01 0.01 0.02 0.02 0.01 0.01 0.01 0.01 0.01 0.01 0.01 0.01 0.01 0.01 0.01 0.01 0.03 0.03 0.02 0.01 0.01 0.01 0.01 0.02 0.02 0.03 0.05 0.05 0.04 0.05 0.04 0.05 0.06 0.07 0.07 0.06 0.05 0.05 0.06 0.05 0.05
0.03 0.03 0.02 0.02 0.01 0.01 0.01 0.01 0.01 0.01 0.00 0.00 0.01 0.01 0.01 0.01 0.01 0.02 0.03 0.02 0.02 0.02 0.02 0.01 0.02 0.02 0.03 0.03 0.02 0.03 0.04 0.05 0.05 0.05 0.06 0.06 0.05 0.06 0.05 0.06 0.06 0.05 0.05
0.04 0.04 0.03 0.02 0.02 0.01 0.01 0.01 0.02 0.01 0.01 0.01 0.01 0.01 0.01 0.01 0.02 0.03 0.02 0.02 0.01 0.02 0.02 0.02 0.02 0.02 0.03 0.03 0.03 0.02 0.03 0.03 0.04 0.04 0.05 0.05 0.05 0.06 0.07 0.07 0.06 0.06 0.05
0.05 0.06 0.05 0.04 0.03 0.02 0.02 0.03 0.03 0.03 0.02 0.02 0.01 0.01 0.02 0.02 0.02 0.02 0.02 0.02 0.02 0.02 0.02 0.02 0.03 0.03 0.03 0.03 0.02 0.02 0.03 0.04 0.06 0.06 0.06 0.06 0.07 0.07 0.07 0.06 0.06 0.06 0.08
MSLP
1012.20 1012.82 1013.39 1013.90 1014.33 1014.71 1015.06 1015.39 1015.71 1016.01 1016.29 1016.55 1016.76 1016.94 1017.10 1017.24 1017.39 1017.55 1017.73 1017.94 1018.16 1018.39 1018.61 1018.81 1019.00 1019.17 1019.33 1019.49 1019.66 1019.84 1020.02 1020.19 1020.33 1020.43 1020.46 1020.44 1020.36 1020.25 1020.13 1020.02 1019.95 1019.93 1019.98
1011.71 1012.34 1012.93 1013.45 1013.89 1014.27 1014.61 1014.93 1015.24 1015.56 1015.88 1016.18 1016.47 1016.72 1016.95 1017.14 1017.32 1017.49 1017.66 1017.84 1018.03 1018.22 1018.41 1018.59 1018.75 1018.91 1019.07 1019.23 1019.40 1019.57 1019.75 1019.92 1020.06 1020.17 1020.22 1020.22 1020.16 1020.05 1019.92 1019.78 1019.67 1019.60 1019.59
1011.11 1011.74 1012.35 1012.88 1013.34 1013.73 1014.08 1014.40 1014.74 1015.08 1015.45 1015.82 1016.17 1016.50 1016.79 1017.04 1017.24 1017.41 1017.56 1017.71 1017.84 1017.99 1018.13 1018.28 1018.43 1018.57 1018.72 1018.87 1019.03 1019.19 1019.36 1019.53 1019.68 1019.79 1019.87 1019.89 1019.86 1019.78 1019.65 1019.52 1019.38 1019.27 1019.22
1010.45 1011.08 1011.70 1012.26 1012.75 1013.16 1013.53 1013.89 1014.25 1014.63 1015.05 1015.48 1015.90 1016.30 1016.64 1016.92 1017.14 1017.30 1017.42 1017.52 1017.60 1017.69 1017.79 1017.90 1018.03 1018.16 1018.29 1018.43 1018.58 1018.74 1018.90 1019.05 1019.21 1019.34 1019.44 1019.50 1019.50 1019.46 1019.37 1019.24 1019.10 1018.97 1018.88
1009.81 1010.44 1011.07 1011.67 1012.19 1012.64 1013.04 1013.42 1013.82 1014.25 1014.71 1015.18 1015.66 1016.10 1016.48 1016.79 1017.00 1017.15 1017.23 1017.27 1017.31 1017.34 1017.40 1017.48 1017.57 1017.69 1017.81 1017.95 1018.08 1018.23 1018.38 1018.53 1018.69 1018.84 1018.96 1019.06 1019.12 1019.12 1019.07 1018.98 1018.85 1018.72 1018.60
1009.28 1009.90 1010.56 1011.17 1011.73 1012.22 1012.65 1013.06 1013.48 1013.94 1014.43 1014.94 1015.44 1015.91 1016.31 1016.62 1016.82 1016.94 1016.98 1016.98 1016.96 1016.95 1016.96 1017.01 1017.08 1017.18 1017.30 1017.42 1017.55 1017.68 1017.82 1017.97 1018.13 1018.29 1018.45 1018.59 1018.69 1018.76 1018.77 1018.72 1018.63 1018.52 1018.39
1008.94 1009.55 1010.21 1010.85 1011.43 1011.94 1012.39 1012.82 1013.26 1013.72 1014.21 1014.73 1015.24 1015.71 1016.11 1016.41 1016.60 1016.69 1016.70 1016.65 1016.59 1016.54 1016.51 1016.53 1016.58 1016.66 1016.76 1016.86 1016.97 1017.09 1017.21 1017.35 1017.50 1017.68 1017.86 1018.04 1018.21 1018.34 1018.42 1018.45 1018.42 1018.34 1018.24
1008.81 1009.42 1010.08 1010.73 1011.32 1011.84 1012.29 1012.72 1013.14 1013.58 1014.06 1014.56 1015.06 1015.51 1015.90 1016.18 1016.35 1016.42 1016.40 1016.32 1016.23 1016.14 1016.08 1016.06 1016.08 1016.13 1016.19 1016.27 1016.35 1016.43 1016.52 1016.63 1016.78 1016.95 1017.16 1017.38 1017.61 1017.82 1017.98 1018.10 1018.16 1018.16 1018.12
1008.90 1009.50 1010.16 1010.81 1011.39 1011.90 1012.34 1012.74 1013.13 1013.54 1013.98 1014.44 1014.91 1015.34 1015.70 1015.97 1016.12 1016.17 1016.13 1016.04 1015.92 1015.80 1015.70 1015.64 1015.62 1015.61 1015.62 1015.64 1015.66 1015.68 1015.73 1015.80 1015.91 1016.08 1016.29 1016.55 1016.84 1017.13 1017.40 1017.62 1017.80 1017.91 1017.98
1009.14 1009.74 1010.40 1011.04 1011.61 1012.09 1012.50 1012.86 1013.21 1013.58 1013.97 1014.39 1014.81 1015.21 1015.55 1015.80 1015.95 1016.00 1015.96 1015.85 1015.71 1015.56 1015.42 1015.31 1015.21 1015.14 1015.07 1015.00 1014.93 1014.87 1014.83 1014.84 1014.90 1015.04 1015.25 1015.54 1015.88 1016.25 1016.63 1016.98 1017.30 1017.57 1017.79
1009.44 1010.06 1010.72 1011.34 1011.90 1012.36 1012.74 1013.06 1013.37 1013.69 1014.03 1014.41 1014.80 1015.17 1015.49 1015.74 1015.89 1015.94 1015.90 1015.79 1015.64 1015.45 1015.27 1015.09 1014.91 1014.73 1014.55 1014.37 1014.19 1014.01 1013.88 1013.79 1013.79 1013.88 1014.08 1014.38 1014.76 1015.21 1015.70 1016.19 1016.67 1017.11 1017.52
1009.71 1010.34 1011.01 1011.64 1012.18 1012.63 1012.99 1013.29 1013.57 1013.85 1014.17 1014.51 1014.87 1015.23 1015.55 1015.79 1015.96 1016.02 1015.99 1015.88 1015.70 1015.49 1015.24 1014.98 1014.71 1014.42 1014.12 1013.80 1013.49 1013.20 1012.94 1012.76 1012.68 1012.71 1012.88 1013.18 1013.59 1014.10 1014.69 1015.31 1015.95 1016.58 1017.18
1009.83 1010.50 1011.19 1011.83 1012.38 1012.83 1013.19 1013.49 1013.76 1014.04 1014.34 1014.68 1015.03 1015.38 1015.69 1015.95 1016.12 1016.20 1016.18 1016.07 1015.88 1015.63 1015.34 1015.00 1014.62 1014.22 1013.80 1013.36 1012.92 1012.50 1012.14 1011.86 1011.70 1011.67 1011.80 1012.08 1012.51 1013.07 1013.74 1014.48 1015.26 1016.06 1016.85
1009.78 1010.48 1011.19 1011.85 1012.43 1012.91 1013.30 1013.63 1013.93 1014.23 1014.54 1014.88 1015.23 1015.59 1015.91 1016.17 1016.36 1016.45 1016.44 1016.33 1016.13 1015.85 1015.50 1015.10 1014.64 1014.14 1013.62 1013.07 1012.53 1012.02 1011.57 1011.22 1010.99 1010.91 1011.00 1011.27 1011.70 1012.29 1013.01 1013.83 1014.72 1015.65 1016.60
1009.54 1010.27 1011.01 1011.70 1012.32 1012.85 1013.30 1013.69 1014.04 1014.38 1014.73 1015.09 1015.46 1015.82 1016.14 1016.41 1016.60 1016.70 1016.69 1016.58 1016.37 1016.08 1015.70 1015.25 1014.74 1014.18 1013.59 1012.98 1012.38 1011.82 1011.33 1010.93 1010.67 1010.57 1010.64 1010.89 1011.32 1011.91 1012.65 1013.50 1014.45 1015.47 1016.52
1009.16 1009.90 1010.66 1011.40 1012.07 1012.67 1013.20 1013.67 1014.10 1014.50 1014.89 1015.29 1015.67 1016.03 1016.35 1016.62 1016.80 1016.89 1016.89 1016.78 1016.57 1016.27 1015.88 1015.42 1014.90 1014.33 1013.72 1013.11 1012.51 1011.95 1011.46 1011.08 1010.82 1010.72 1010.79 1011.04 1011.45 1012.03 1012.76 1013.62 1014.57 1015.60 1016.69
1008.69 1009.44 1010.22 1010.99 1011.73 1012.41 1013.03 1013.59 1014.11 1014.59 1015.03 1015.46 1015.85 1016.21 1016.52 1016.77 1016.94 1017.02 1017.00 1016.90 1016.70 1016.41 1016.04 1015.60 1015.11 1014.57 1014.01 1013.44 1012.90 1012.39 1011.97 1011.65 1011.45 1011.38 1011.48 1011.73 1012.13 1012.69 1013.38 1014.19 1015.10 1016.09 1017.14
1008.24 1008.97 1009.76 1010.57 1011.37 1012.14 1012.85 1013.51 1014.12 1014.67 1015.16 1015.61 1016.01 1016.36 1016.64 1016.86 1017.00 1017.06 1017.04 1016.94 1016.76 1016.51 1016.18 1015.80 1015.37 1014.91 1014.44 1013.97 1013.53 1013.14 1012.82 1012.59 1012.48 1012.49 1012.63 1012.90 1013.30 1013.82 1014.45 1015.19 1016.02 1016.91 1017.86
1007.86 1008.56 1009.36 1010.20 1011.07 1011.91 1012.73 1013.48 1014.16 1014.78 1015.31 1015.78 1016.17 1016.49 1016.74 1016.92 1017.03 1017.07 1017.05 1016.96 1016.81 1016.60 1016.35 1016.04 1015.71 1015.35 1015.00 1014.66 1014.35 1014.10 1013.91 1013.81 1013.81 1013.90 1014.10 1014.40 1014.79 1015.28 1015.85 1016.49 1017.20 1017.97 1018.78
1007.59 1008.27 1009.07 1009.95 1010.87 1011.79 1012.68 1013.51 1014.27 1014.93 1015.50 1015.96 1016.34 1016.63 1016.84 1016.99 1017.07 1017.10 1017.07 1017.01 1016.90 1016.75 1016.57 1016.36 1016.14 1015.91 1015.68 1015.47 1015.31 1015.19 1015.14 1015.16 1015.27 1015.45 1015.70 1016.03 1016.42 1016.87 1017.37 1017.91 1018.50 1019.13 1019.78
1007.44 1008.10 1008.91 1009.82 1010.78 1011.77 1012.73 1013.63 1014.43 1015.13 1015.71 1016.18 1016.53 1016.79 1016.97 1017.09 1017.15 1017.17 1017.16 1017.13 1017.08 1017.00 1016.91 1016.80 1016.68 1016.56 1016.46 1016.38 1016.33 1016.34 1016.40 1016.52 1016.71 1016.96 1017.26 1017.61 1017.99 1018.40 1018.83 1019.28 1019.76 1020.24 1020.75
1007.39 1008.04 1008.86 1009.79 1010.80 1011.83 1012.84 1013.79 1014.63 1015.35 1015.93 1016.39 1016.73 1016.96 1017.12 1017.22 1017.28 1017.31 1017.34 1017.35 1017.36 1017.37 1017.36 1017.35 1017.33 1017.31 1017.31 1017.32 1017.36 1017.45 1017.59 1017.78 1018.01 1018.30 1018.62 1018.97 1019.33 1019.70 1020.08 1020.45 1020.82 1021.20 1021.58
1007.41 1008.06 1008.88 1009.84 1010.88 1011.94 1012.98 1013.95 1014.80 1015.53 1016.11 1016.56 1016.89 1017.11 1017.27 1017.37 1017.45 1017.52 1017.59 1017.67 1017.76 1017.84 1017.92 1018.00 1018.06 1018.12 1018.18 1018.25 1018.34 1018.47 1018.63 1018.84 1019.09 1019.37 1019.68 1020.01 1020.34 1020.68 1021.00 1021.31 1021.61 1021.91 1022.20
1007.47 1008.13 1008.96 1009.92 1010.97 1012.04 1013.08 1014.05 1014.91 1015.63 1016.20 1016.65 1016.97 1017.20 1017.37 1017.50 1017.62 1017.75 1017.89 1018.05 1018.22 1018.39 1018.55 1018.70 1018.83 1018.94 1019.04 1019.13 1019.22 1019.34 1019.49 1019.67 1019.88 1020.13 1020.41 1020.70 1020.99 1021.28 1021.57 1021.84 1022.10 1022.34 1022.59
1007.59 1008.25 1009.07 1010.02 1011.05 1012.10 1013.12 1014.07 1014.90 1015.60 1016.17 1016.61 1016.94 1017.19 1017.39 1017.58 1017.76 1017.96 1018.19 1018.43 1018.69 1018.95 1019.19 1019.40 1019.58 1019.71 1019.82 1019.90 1019.97 1020.04 1020.13 1020.25 1020.41 1020.59 1020.81 1021.05 1021.30 1021.56 1021.82 1022.07 1022.31 1022.54 1022.77
1007.79 1008.42 1009.22 1010.13 1011.11 1012.11 1013.08 1013.98 1014.77 1015.44 1015.99 1016.43 1016.79 1017.08 1017.33 1017.58 1017.84 1018.13 1018.45 1018.79 1019.14 1019.47 1019.78 1020.04 1020.25 1020.39 1020.48 1020.53 1020.55 1020.56 1020.58 1020.62 1020.70 1020.81 1020.96 1021.15 1021.37 1021.60 1021.84 1022.09 1022.34 1022.58 1022.83
Thickness
5813 5808 5802 5796 5790 5784 5778 5773 5767 5763 5759 5756 5753 5749 5747 5747 5745 5744 5742 5740 5738 5737 5735 5737 5735 5735 5736 5735 5735 5735 5734 5733 5734 5732 5731 5733 5736 5735 5734 5733 5732 5732 5730
5809 5804 5799 5795 5789 5783 5779 5774 5768 5765 5761 5758 5755 5752 5750 5748 5746 5744 5742 5740 5738 5737 5736 5735 5736 5736 5735 5734 5734 5734 5735 5735 5735 5732 5728 5726 5729 5732 5736 5734 5732 5732 5731
5809 5803 5798 5794 5790 5784 5780 5776 5770 5765 5762 5758 5755 5751 5748 5747 5746 5744 5742 5741 5739 5738 5737 5736 5736 5737 5737 5736 5734 5735 5733 5733 5735 5736 5731 5726 5724 5730 5734 5734 5733 5732 5731
5812 5805 5798 5794 5790 5787 5783 5778 5771 5766 5762 5759 5755 5751 5747 5746 5747 5746 5745 5742 5740 5739 5738 5737 5736 5736 5737 5736 5735 5737 5735 5733 5732 5734 5734 5734 5734 5726 5725 5731 5734 5732 5730
5813 5806 5801 5796 5792 5789 5784 5778 5772 5766 5763 5759 5757 5752 5750 5749 5748 5746 5743 5741 5740 5739 5738 5738 5737 5736 5737 5737 5736 5736 5735 5736 5734 5734 5733 5732 5731 5731 5727 5724 5728 5730 5730
5812 5807 5804 5798 5792 5788 5784 5778 5772 5767 5763 5759 5757 5753 5750 5748 5745 5743 5742 5740 5741 5740 5739 5738 5737 5736 5737 5736 5735 5735 5735 5735 5734 5734 5734 5732 5730 5730 5729 5725 5724 5725 5727
5809 5804 5800 5795 5791 5786 5782 5777 5771 5766 5763 5760 5757 5754 5751 5748 5745 5743 5742 5740 5740 5740 5739 5739 5737 5737 5736 5736 5735 5734 5735 5734 5733 5731 5732 5733 5733 5733 5731 5727 5725 5723 5724
5808 5804 5801 5796 5791 5786 5781 5776 5770 5765 5762 5760 5757 5754 5751 5749 5748 5745 5744 5742 5741 5741 5741 5739 5737 5737 5736 5736 5735 5735 5734 5733 5732 5732 5731 5731 5732 5732 5731 5727 5722 5717 5718
5804 5802 5799 5795 5790 5784 5780 5775 5769 5764 5762 5759 5756 5753 5751 5749 5747 5745 5743 5742 5741 5741 5740 5738 5737 5736 5735 5734 5733 5734 5733 5732 5731 5731 5729 5728 5729 5729 5729 5727 5724 5716 5710
5802 5800 5797 5792 5788 5783 5778 5774 5768 5763 5761 5758 5755 5753 5750 5749 5746 5745 5743 5741 5740 5739 5738 5737 5736 5735 5734 5733 5731 5732 5731 5729 5728 5727 5726 5725 5725 5725 5724 5723 5721 5718 5712
5801 5797 5794 5790 5786 5781 5776 5771 5766 5762 5759 5757 5754 5752 5750 5748 5746 5743 5742 5740 5739 5738 5736 5735 5734 5734 5733 5731 5729 5728 5727 5725 5724 5724 5722 5721 5720 5720 5720 5719 5716 5713 5709
5800 5796 5791 5786 5783 5778 5774 5769 5765 5761 5758 5756 5753 5751 5749 5747 5744 5742 5741 5739 5738 5737 5735 5734 5732 5731 5730 5729 5727 5725 5724 5722 5720 5719 5717 5716 5716 5713 5713 5712 5710 5707 5704
5796 5792 5787 5783 5779 5776 5772 5768 5764 5761 5758 5755 5752 5749 5746 5744 5742 5740 5739 5738 5736 5734 5733 5732 5729 5728 5727 5725 5725 5723 5721 5719 5717 5715 5713 5711 5710 5708 5707 5705 5703 5701 5699
5791 5788 5783 5780 5777 5773 5769 5765 5763 5760 5757 5754 5750 5746 5743 5741 5739 5738 5736 5735 5733 5731 5730 5728 5727 5725 5723 5722 5721 5719 5717 5715 5712 5710 5708 5706 5705 5703 5701 5699 5696 5693 5690
5788 5785 5781 5777 5773 5769 5766 5763 5760 5757 5755 5751 5747 5744 5741 5739 5737 5735 5733 5731 5729 5728 5726 5724 5722 5721 5719 5717 5716 5714 5711 5708 5705 5704 5702 5700 5698 5697 5695 5694 5690 5687 5683
5787 5784 5779 5775 5770 5766 5763 5760 5756 5753 5751 5747 5744 5741 5738 5735 5733 5731 5729 5727 5725 5723 5721 5719 5717 5715 5713 5710 5709 5707 5705 5702 5699 5696 5695 5693 5691 5689 5686 5684 5681 5679 5676
5787 5783 5778 5773 5769 5765 5761 5756 5753 5750 5747 5743 5740 5737 5735 5731 5729 5727 5724 5722 5720 5718 5716 5713 5712 5709 5706 5704 5702 5700 5699 5696 5693 5690 5688 5686 5684 5682 5679 5674 5670 5667 5664
5786 5782 5777 5772 5768 5764 5759 5755 5751 5747 5743 5740 5736 5733 5730 5727 5724 5721 5719 5716 5714 5712 5709 5707 5705 5702 5699 5696 5695 5693 5691 5688 5685 5683 5681 5678 5675 5673 5670 5667 5662 5657 5653
5786 5781 5777 5772 5766 5761 5756 5751 5747 5743 5740 5736 5732 5729 5726 5722 5719 5715 5712 5709 5707 5704 5702 5700 5697 5695 5692 5689 5688 5686 5684 5681 5677 5674 5671 5670 5667 5663 5661 5658 5653 5647 5641
5782 5777 5773 5767 5760 5756 5753 5747 5743 5738 5734 5731 5728 5725 5721 5717 5713 5709 5706 5703 5700 5697 5696 5692 5690 5688 5685 5681 5680 5678 5678 5674 5670 5666 5662 5658 5656 5653 5651 5649 5644 5638 5631
5774 5771 5766 5760 5755 5751 5747 5742 5738 5733 5730 5726 5723 5719 5715 5711 5707 5703 5700 5697 5694 5691 5688 5685 5682 5679 5676 5673 5670 5669 5670 5668 5663 5659 5654 5649 5645 5642 5640 5638 5634 5628 5623
5764 5762 5758 5752 5748 5745 5740 5735 5730 5727 5724 5719 5715 5711 5708 5705 5702 5697 5694 5691 5688 5684 5681 5678 5675 5672 5668 5664 5661 5659 5658 5657 5655 5650 5645 5638 5634 5631 5628 5625 5620 5616 5613
5755 5753 5749 5743 5740 5737 5734 5728 5722 5719 5715 5711 5707 5704 5701 5697 5694 5690 5687 5684 5681 5679 5676 5673 5669 5665 5660 5655 5651 5648 5646 5645 5643 5639 5632 5627 5623 5619 5616 5611 5608 5606 5605
5744 5742 5739 5734 5730 5727 5724 5720 5715 5711 5707 5703 5699 5696 5692 5689 5685 5682 5679 5677 5673 5671 5668 5665 5662 5658 5654 5650 5646 5642 5638 5634 5631 5627 5620 5616 5612 5610 5605 5600 5598 5595 5592
5733 5731 5728 5723 5719 5717 5714 5710 5706 5703 5699 5695 5691 5688 5685 5681 5676 5672 5668 5666 5662 5660 5658 5657 5654 5651 5646 5640 5636 5636 5633 5629 5625 5619 5615 5611 5607 5603 5598 5593 5589 5585 5581
5721 5718 5716 5713 5709 5706 5702 5699 5697 5694 5690 5687 5682 5679 5676 5672 5668 5663 5656 5650 5649 5645 5644 5642 5641 5638 5633 5628 5625 5622 5620 5616 5612 5611 5608 5603 5599 5595 5590 5585 5580 5575 5570